This demonstration page uses our WeatherBlox Daily Observations layout. Learn more.

Left ArrowRight Arrow

34.74481, -87.66753

Hourly Observations for June 21, 2018

Temp ( °F °C ) Dew Point ( °F °C ) Humidity (%) Winds ( mph kmh ) Pressure ( in mb ) Visibility ( mi km ) Precip ( " mm )
12:53 am 00:53 Cloudy 75 23.9 73 22.8 94 94 Calm 29.91 1013 10 16 0.00 0.00
1:53 am 01:53 Cloudy with Light Rain 75 23.9 73 22.8 94 94 Calm 29.89 1012 10 16 0.01 0.25
2:29 am 02:29 Cloudy with Thunderstorms 74 23.3 72 22.2 94 94 WNW 6 9 29.88 1012 8 13 0.04 1.02
2:41 am 02:41 Cloudy with Thunderstorms 74 23.3 72 22.2 94 94 WNW 7 11 29.88 1012 8 13 0.07 1.78
2:50 am 02:50 Cloudy with Rain 73 23 72 22 94 94 NW 5 7 29.88 1012 8 13 0.08 2.03
2:53 am 02:53 Cloudy with Rain 74 23.3 72 22.2 94 94 NW 6 9 29.89 1012 9 14 0.09 2.29
3:05 am 03:05 Cloudy with Light Rain 74 23.3 72 22.2 94 94 NNW 3 6 29.88 1012 10 16 0.01 0.25
3:15 am 03:15 Cloudy with Light Rain 74 23.3 72 22.2 94 94 Calm 29.88 1012 10 16 0.01 0.25
3:53 am 03:53 Cloudy with Light Rain 74 23.3 72 22.2 94 94 Calm 29.88 1012 10 16 0.08 2.03
4:53 am 04:53 Cloudy 74 23.3 72 22.2 94 94 Calm 29.87 1012 10 16 0.00 0.03
5:53 am 05:53 Cloudy 73 22.8 72 22.2 96 96 Calm 29.88 1012 10 16 0.00 0.00
6:37 am 06:37 Cloudy with Heavy Rain 73 22.8 72 22.2 96 96 S 5 7 29.88 1012 3 5 0.16 4.06
6:53 am 06:53 Cloudy with Rain 73 22.8 72 22.2 96 96 S 5 7 29.90 1013 5 8 0.21 5.33
7:08 am 07:08 Cloudy with Light Rain 73 22.8 72 22.2 96 96 SSE 5 7 29.88 1012 8 13 0.05 1.27
7:53 am 07:53 Cloudy with Rain 73 22.8 71 21.7 94 94 S 5 7 29.90 1013 10 16 0.13 3.30
8:41 am 08:41 Cloudy with Rain 73 22.8 72 22.2 96 96 SSE 6 9 29.88 1012 5 8 0.12 3.05
8:53 am 08:53 Cloudy with Light Rain 74 23.3 72 22.2 94 94 S 7 11 29.89 1012 10 16 0.13 3.30
9:01 am 09:01 Cloudy with Light Rain 74 23.3 72 22.2 94 94 S 6 9 29.88 1012 10 16 0.01 0.25
9:16 am 09:16 Cloudy with Rain 74 23.3 72 22.2 94 94 SSW 5 7 29.88 1012 6 10 0.04 1.02
9:44 am 09:44 Mostly Cloudy 75 23.9 72 22.2 90 90 SSW 6 9 29.88 1012 10 16 0.04 1.02
9:53 am 09:53 Mostly Cloudy 76 24.4 72 22.2 88 88 SSW 7 11 29.87 1012 10 16 0.04 1.02
10:03 am 10:03 Partly Cloudy 76 24.4 73 22.8 91 91 S 8 13 29.88 1012 10 16 0.00 0.00
10:16 am 10:16 Mostly Cloudy 77 25 73 22.8 88 88 SSW 6 9 29.85 1011 10 16 0.00 0.00
10:53 am 10:53 Mostly Cloudy 80 26.7 73 22.8 79 79 WSW 12 19 29.87 1012 10 16 0.00 0.00
11:07 am 11:07 Mostly Cloudy 81 27.2 73 22.8 77 77 WSW 14 22 29.85 1011 10 16 0.00 0.00
11:24 am 11:24 Mostly Cloudy 80 26.7 72 22.2 76 76 W 12 19 29.85 1011 10 16 0.00 0.00
11:48 am 11:48 Mostly Cloudy 82 28 72 22 70 70 WSW 14 22 29.85 1011 10 16 0.00 0.00
11:53 am 11:53 Mostly Cloudy 81 27.2 72 22.2 74 74 WSW 13 20 29.85 1011 10 16 0.00 0.00
12:04 pm 12:04 Mostly Cloudy 81 27.2 71 21.7 72 72 WSW 13 20 29.85 1011 10 16 0.00 0.00
12:24 pm 12:24 Mostly Cloudy 83 28.3 72 22.2 70 70 WSW 13 20 29.85 1011 10 16 0.00 0.00
12:53 pm 12:53 Mostly Cloudy 82 27.8 71 21.7 69 69 WSW 13 20 29.83 1010 10 16 0.00 0.00
1:53 pm 13:53 Mostly Cloudy 84 28.9 72 22.2 67 67 WSW 17 28 29.81 1010 10 16 0.00 0.00
2:53 pm 14:53 Partly Cloudy 85 29.4 72 22.2 65 65 WSW 12 19 29.80 1009 10 16 0.00 0.00
3:53 pm 15:53 Mostly Sunny 87 30.6 72 22.2 61 61 WSW 15 24 29.78 1009 10 16 0.00 0.00
4:53 pm 16:53 Partly Cloudy 85 29.4 70 21.1 61 61 SW 13 20 29.77 1008 10 16 0.00 0.00
5:53 pm 17:53 Partly Cloudy 84 28.9 70 21.1 63 63 WSW 12 19 29.77 1008 10 16 0.00 0.00
6:53 pm 18:53 Mostly Cloudy 83 28.3 74 23.3 74 74 SSW 10 17 29.78 1008 10 16 0.00 0.00
7:53 pm 19:53 Partly Cloudy with Nearby Thunderstorms 81 27.2 74 23.3 79 79 SSW 6 9 29.78 1008 10 16 0.00 0.00
8:04 pm 20:04 Sunny with Thunderstorms 81 27.2 73 22.8 77 77 S 5 7 29.80 1009 10 16 0.00 0.00
8:15 pm 20:15 Partly Cloudy with Thunderstorms 80 26.7 74 23.3 82 82 Calm 29.80 1009 2 3 0.07 1.78
8:28 pm 20:28 Mostly Cloudy with Strong Thunderstorms 73 22.8 70 21.1 90 90 S 16 26 29.83 1010 2 3 0.46 11.68
8:38 pm 20:38 Cloudy with Nearby Thunderstorms 73 22.8 66 18.9 79 79 VRB 6 9 29.83 1010 9 14 0.47 11.94
8:45 pm 20:45 Cloudy with Nearby Thunderstorms 73 22.8 68 20 84 84 SW 6 9 29.83 1010 10 16 0.48 12.19
8:53 pm 20:53 Cloudy with Nearby Thunderstorms 72 22.2 70 21.1 94 94 SSW 9 15 29.81 1010 6 10 0.54 13.72
9:10 pm 21:10 Cloudy with Light Rain 71 21.7 69 20.6 94 94 S 12 19 29.83 1010 9 14 0.05 1.27
9:34 pm 21:34 Mostly Cloudy with Nearby Thunderstorms 72 22.2 69 20.6 91 91 NW 3 6 29.83 1010 10 16 0.06 1.52
9:51 pm 21:51 Mostly Cloudy 72 22 70 21 94 94 WSW 5 7 29.83 1010 10 16 0.06 1.52
9:53 pm 21:53 Mostly Cloudy 72 22.2 69 20.6 91 91 WSW 6 9 29.82 1010 10 16 0.06 1.52
10:53 pm 22:53 Mostly Cloudy with Light Rain 71 21.7 69 20.6 94 94 WSW 8 13 29.82 1010 10 16 0.09 2.29
11:53 pm 23:53 Cloudy with Light Rain 69 20.6 65 18.3 87 87 SSW 5 7 29.82 1010 10 16 0.03 0.76

Powered by AerisWeather